(233100) = 2005 SR56 = 2007 EO194

Discovered at Kitt Peak on 2005-09-26 by Spacewatch.

Orbit

Orbit type: Main Belt

Note: WebGL enabled browser required.

epoch2022-01-21.0
epoch JD2459600.5
perihelion date2020-12-07.44305
perihelion JD2459190.94305
argument of perihelion (°)241.95657
ascending node (°)168.64743
inclination (°)5.22992
eccentricity0.2268101
perihelion distance (AU)1.8486369
Tisserand w.r.t. Jupiter3.5
ΔV w.r.t. Earth (km/sec)8.6
semimajor axis (AU)2.3909223
mean anomaly (°)109.18675
mean daily motion (°/day)0.26659720
aphelion distance (AU)2.933
period (years)3.7
P-vector [x]0.63395332
P-vector [y]0.73770608
P-vector [z]0.23214850
Q-vector [x]-0.77316314
Q-vector [y]0.59759036
Q-vector [z]0.21237824
absolute magnitude18.05
phase slope0.15
uncertainty0
referenceMPO 695888
observations used224
oppositions10
arc length (days)6584
first opposition used2003
last opposition used2021
residual rms (arc-secs)0.82
perturbers coarse indicatorM-v
perturbers precise indicator003Ek
first observation date used2003-01-28.0
last observation date used2021-02-06.0
computer namePan
JD of orbit computation2456671.024007
perihelion JD uncertainty (days)6.8632E-05
argument of perihelion uncertainty (°)6.6494E-05
ascending node uncertainty (°)5.9762E-05
inclination uncertainty (°)6.1034E-06
eccentricity uncertainty 5.5184E-08
perihelion distance uncertainty (AU)1.2599E-07
Minimum Orbit Intersection Distances (in AU)
for orbit epoch: 2458200.5, reference: MPO391211
Mercury1.52954
Venus1.12394
Earth0.860588
Mars0.384156
Jupiter2.46392
Saturn6.83065
Uranus15.4431
Neptune27.3271

Observations

227 total observations over interval: 2003 01 28.266330 – 2021 02 06.118796
These data are available for download (format description).

Date (UT) J2000 RA J2000 Dec Magn Location Ref
2003 01 28.266330 09 36 37.474 +09 02 03.57 21.07 V 645 – Apache Point-Sloan Digital Sky Survey MPS 206185
2003 01 28.269802 09 36 37.274 +09 02 05.01 21.85   645 – Apache Point-Sloan Digital Sky Survey MPS 206185
2005 08 29.19286 22 54 15.23 -05 12 15.8 20.4 V 691 – Steward Observatory, Kitt Peak-Spacewatch MPS 206185
2005 08 29.21020 22 54 14.36 -05 12 24.7 20.5 V 691 – Steward Observatory, Kitt Peak-Spacewatch MPS 206185
2005 08 29.22747 22 54 13.51 -05 12 33.5 20.5 V 691 – Steward Observatory, Kitt Peak-Spacewatch MPS 206185
2005 09 26.12156 22 32 33.57 -09 11 44.0 21.1 V 691 – Steward Observatory, Kitt Peak-Spacewatch MPS 142797
2005 09 26.14760 22 32 32.60 -09 11 55.4 20.8 V 691 – Steward Observatory, Kitt Peak-Spacewatch MPS 142797
2005 09 26.17380 22 32 31.64 -09 12 07.0 20.9 V 691 – Steward Observatory, Kitt Peak-Spacewatch MPS 142797
2005 09 29.21336 22 30 53.89 -09 33 28.0 20.5 V G96 – Mt. Lemmon Survey MPS 142797
2005 09 29.22135 22 30 53.60 -09 33 30.8 20.7 V G96 – Mt. Lemmon Survey MPS 142797
2005 09 29.22931 22 30 53.35 -09 33 33.8 19.6 V G96 – Mt. Lemmon Survey MPS 142797
2005 09 29.23724 22 30 53.10 -09 33 37.4 20.7 V G96 – Mt. Lemmon Survey MPS 142797
2005 10 29.17095 22 30 48.74 -11 11 35.1 22.2 V G96 – Mt. Lemmon Survey MPS 206185
2005 10 29.17638 22 30 48.88 -11 11 35.6 21.7 V G96 – Mt. Lemmon Survey MPS 206185
2005 10 29.18178 22 30 49.06 -11 11 35.2 21.7 V G96 – Mt. Lemmon Survey MPS 206185
2005 10 29.18737 22 30 49.21 -11 11 34.7 22.2 V G96 – Mt. Lemmon Survey MPS 206185
2007 03 15.19887 11 53 45.07 +01 51 52.8 21.8 V 691 – Steward Observatory, Kitt Peak-Spacewatch MPS 204822
2007 03 15.21650 11 53 44.08 +01 52 00.6 21.6 V 691 – Steward Observatory, Kitt Peak-Spacewatch MPS 204822
2007 03 15.23413 11 53 43.06 +01 52 09.8 21.7 V 691 – Steward Observatory, Kitt Peak-Spacewatch MPS 204822
2007 03 20.28497 11 49 05.70 +02 32 23.9 20.7 V G96 – Mt. Lemmon Survey MPS 204822
2007 03 20.29216 11 49 05.30 +02 32 27.8 20.8 V G96 – Mt. Lemmon Survey MPS 204822
2007 03 20.29950 11 49 04.87 +02 32 31.2 21.6 V G96 – Mt. Lemmon Survey MPS 204822
2007 03 20.30674 11 49 04.44 +02 32 34.0 21.5 V G96 – Mt. Lemmon Survey MPS 204822
2009 10 12.44964 04 05 55.21 +13 04 02.3 19.7 V G96 – Mt. Lemmon Survey MPS 298319
2009 10 12.45613 04 05 55.24 +13 04 00.2 19.7 V G96 – Mt. Lemmon Survey MPS 298319
2009 10 12.46209 04 05 55.24 +13 03 58.5 19.8 V G96 – Mt. Lemmon Survey MPS 298319
2009 10 12.46818 04 05 55.32 +13 03 55.9 19.8 V G96 – Mt. Lemmon Survey MPS 298319
2009 10 14.42299 04 06 09.32 +12 53 09.8 19.7 V G96 – Mt. Lemmon Survey MPS 298319
2009 10 14.42903 04 06 09.36 +12 53 07.7 19.8 V G96 – Mt. Lemmon Survey MPS 298319
2009 10 14.43512 04 06 09.36 +12 53 05.8 19.8 V G96 – Mt. Lemmon Survey MPS 298319
2009 10 14.44112 04 06 09.36 +12 53 03.4 19.6 V G96 – Mt. Lemmon Survey MPS 298319
2009 10 24.39593 04 05 01.32 +11 53 19.6 19.6 V 703 – Catalina Sky Survey MPS 300681
2009 10 24.40610 04 05 01.17 +11 53 17.9 19.5 V 703 – Catalina Sky Survey MPS 300681
2009 10 24.41620 04 05 00.92 +11 53 13.1 19.5 V 703 – Catalina Sky Survey MPS 300681
2009 10 24.42634 04 05 00.78 +11 53 09.3 19.7 V 703 – Catalina Sky Survey MPS 300681
2009 10 26.30253 04 04 23.19 +11 41 19.8 19.8 V 703 – Catalina Sky Survey MPS 300681
2009 10 26.31112 04 04 23.08 +11 41 14.7 19.6 V 703 – Catalina Sky Survey MPS 300681
2009 10 26.31969 04 04 22.87 +11 41 11.2 19.8 V 703 – Catalina Sky Survey MPS 300681
2009 10 26.32821 04 04 22.72 +11 41 08.6 19.6 V 703 – Catalina Sky Survey MPS 300681
2009 11 09.38116 03 56 09.09 +10 13 14.7 18.9 V 703 – Catalina Sky Survey MPS 302180
2009 11 09.38773 03 56 08.77 +10 13 12.5 18.8 V 703 – Catalina Sky Survey MPS 302180
2009 11 09.39427 03 56 08.44 +10 13 09.4 19.4 V 703 – Catalina Sky Survey MPS 302180
2009 11 09.40071 03 56 08.08 +10 13 06.8 19.3 V 703 – Catalina Sky Survey MPS 302180
2009 11 14.27377 03 52 13.44 +09 45 39.5 19.6   704 – Lincoln Laboratory ETS, New Mexico MPS 303300
2009 11 14.29832 03 52 12.13 +09 45 31.4 19.9   704 – Lincoln Laboratory ETS, New Mexico MPS 303300
2009 11 14.31055 03 52 11.45 +09 45 27.9 19.8   704 – Lincoln Laboratory ETS, New Mexico MPS 303300
2009 11 14.32287 03 52 10.85 +09 45 21.9 19.5   704 – Lincoln Laboratory ETS, New Mexico MPS 303300
2009 11 19.25831 03 47 57.54 +09 20 56.3 19.5   704 – Lincoln Laboratory ETS, New Mexico MPS 303300
2009 11 19.27070 03 47 56.86 +09 20 53.3 19.1   704 – Lincoln Laboratory ETS, New Mexico MPS 303300
2009 11 19.28301 03 47 56.19 +09 20 50.0 19.4   704 – Lincoln Laboratory ETS, New Mexico MPS 303300
2009 11 19.29533 03 47 55.48 +09 20 47.1 19.2   704 – Lincoln Laboratory ETS, New Mexico MPS 303300
2009 11 19.95506 03 47 21.45 +09 17 47.6 18.9 V J75 – OAM Observatory, La Sagra MPS 304908
2009 11 19.96771 03 47 20.76 +09 17 44.7 18.9 V J75 – OAM Observatory, La Sagra MPS 304908
2009 11 19.98037 03 47 20.06 +09 17 41.4 18.7 V J75 – OAM Observatory, La Sagra MPS 304908
2009 11 22.34542 03 45 17.20 +09 07 47.4 19.1 V G96 – Mt. Lemmon Survey MPS 304908
2009 11 22.35124 03 45 16.92 +09 07 46.2 19.1 V G96 – Mt. Lemmon Survey MPS 304908
2009 11 22.35706 03 45 16.59 +09 07 44.5 19.0 V G96 – Mt. Lemmon Survey MPS 304908
2009 12 10.29335 03 32 12.55 +08 32 57.0 20.1 V 703 – Catalina Sky Survey MPS 307294
2009 12 10.30131 03 32 12.22 +08 32 56.3 19.6 V 703 – Catalina Sky Survey MPS 307294
2009 12 10.30913 03 32 11.97 +08 32 56.5 19.6 V 703 – Catalina Sky Survey MPS 307294
2009 12 10.31694 03 32 11.76 +08 32 56.7 20.2 V 703 – Catalina Sky Survey MPS 307294
2010 02 16.416326 04 12 04.28 +14 46 23.1   C51 – WISE MPS 313207
2010 02 16.548631 04 12 16.01 +14 47 22.2   C51 – WISE MPS 313207
2010 02 16.548758 04 12 16.06 +14 47 21.9   C51 – WISE MPS 313207
2010 02 16.681061 04 12 27.89 +14 48 19.2   C51 – WISE MPS 313207
2010 02 16.813366 04 12 39.64 +14 49 15.6   C51 – WISE MPS 313207
2010 02 16.945670 04 12 51.47 +14 50 14.7   C51 – WISE MPS 313207
2010 02 17.011887 04 12 57.39 +14 50 42.9   C51 – WISE MPS 313207
2010 02 17.07798 04 13 03.23 +14 51 10.9   C51 – WISE MPS 313207
2010 02 17.144190 04 13 09.27 +14 51 39.9   C51 – WISE MPS 313207
2010 02 17.210406 04 13 15.14 +14 52 09.0   C51 – WISE MPS 313207
2010 02 17.276494 04 13 21.11 +14 52 37.4   C51 – WISE MPS 331848
2010 02 17.34271 04 13 27.08 +14 53 05.7   C51 – WISE MPS 313207
2010 02 17.408799 04 13 33.03 +14 53 34.9   C51 – WISE MPS 331848
2010 02 17.541230 04 13 44.95 +14 54 31.9   C51 – WISE MPS 313207
2010 02 17.673535 04 13 56.82 +14 55 30.1   C51 – WISE MPS 313207
2010 02 17.805838 04 14 08.74 +14 56 25.9   C51 – WISE MPS 331848
2013 12 24.49643 08 55 57.36 +09 55 01.5 20.6 V G96 – Mt. Lemmon Survey MPS 493184
2013 12 24.50493 08 55 57.23 +09 55 02.6 20.0 V G96 – Mt. Lemmon Survey MPS 493184
2013 12 24.51344 08 55 56.93 +09 55 03.4 21.3 V G96 – Mt. Lemmon Survey MPS 493184
2013 12 24.52194 08 55 56.74 +09 55 03.4 20.6 V G96 – Mt. Lemmon Survey MPS 493184
2013 12 30.41135 08 53 02.83 +10 06 14.3 20.8 V 691 – Steward Observatory, Kitt Peak-Spacewatch MPS 494981
2013 12 30.43257 08 53 02.02 +10 06 17.5 21.0 V 691 – Steward Observatory, Kitt Peak-Spacewatch MPS 494981
2013 12 30.45034 08 53 01.36 +10 06 19.9 21.1 V 691 – Steward Observatory, Kitt Peak-Spacewatch MPS 494981
2014 01 01.31364 08 51 52.35 +10 11 26.4 20.7 V G96 – Mt. Lemmon Survey MPS 494981
2014 01 01.32108 08 51 51.99 +10 11 27.3 20.7 V G96 – Mt. Lemmon Survey MPS 494981
2014 01 01.32853 08 51 51.72 +10 11 28.4 20.7 V G96 – Mt. Lemmon Survey MPS 494981
2014 01 01.33596 08 51 51.37 +10 11 30.1 20.6 V G96 – Mt. Lemmon Survey MPS 494981
2014 01 05.43121 08 48 57.127 +10 25 18.29 20.6 w F51 – Pan-STARRS 1, Haleakala MPS 496371
2014 01 05.46150 08 48 55.651 +10 25 25.28 20.7 w F51 – Pan-STARRS 1, Haleakala MPS 496371
2014 01 05.47665 08 48 54.921 +10 25 28.83 20.6 w F51 – Pan-STARRS 1, Haleakala MPS 496371
2014 01 11.41759 08 43 56.06 +10 51 12.7 20.6 V 691 – Steward Observatory, Kitt Peak-Spacewatch MPS 496875
2014 01 11.43535 08 43 55.01 +10 51 17.6 20.6 V 691 – Steward Observatory, Kitt Peak-Spacewatch MPS 496875
2014 01 11.45312 08 43 54.02 +10 51 22.6 20.8 V 691 – Steward Observatory, Kitt Peak-Spacewatch MPS 496875
